Regional Weather Roundup
Issued by NWS

Home | Current Version | Previous Version | Graphics & Text | Print | Product List | Glossary On
Versions: 1 2 3 4 5 6 7 8 9 10 11 12 13 14 15 16 17 18 19 20 21 22 23 24 25 26 27 28 29 30 31 32 33 34 35 36 37 38 39 40 41 42 43 44 45 46 47 48 49 50
000
ASUS43 KLOT 012312
RWRIL

ILLINOIS REGIONAL WEATHER ROUNDUP
NATIONAL WEATHER SERVICE CHICAGO/ROMEOVILLE IL
600 PM CDT MON JUN 01 2015

NOTE: "FAIR" INDICATES FEW OR NO CLOUDS BELOW 12,000 FEET WITH NO
SIGNIFICANT WEATHER AND/OR OBSTRUCTIONS TO VISIBILITY.

* THESE STATIONS ARE NOT UNDER NWS QUALITY CONTROL. THEY ALSO MAY NOT
  REPORT WEATHER SUCH AS PRECIPITATION OR FOG.

ILZ001-002-007-009-015-016-024-020000-
NORTHWEST ILLINOIS

CITY           SKY/WX    TMP DP  RH WIND       PRES   REMARKS
MOLINE         MOSUNNY   71  49  45 CALM      30.14F
STERLING*      SUNNY     68  45  42 E7        30.16S
SAVANNA*       SUNNY     70  40  33 SE5       30.16F
$$

ILZ003-004-008-010-011-017-018-020000-
NORTH CENTRAL ILLINOIS

CITY           SKY/WX    TMP DP  RH WIND       PRES   REMARKS
ROCKFORD       MOSUNNY   66  43  43 E10G18    30.19S
FREEPORT*      SUNNY     66  45  47 E8        30.19F
ROCHELLE*      SUNNY     65  45  48 E10       30.18S
DE KALB*       SUNNY     60  44  54 E13       30.19F
PERU*          SUNNY     68  43  40 E6        30.16F
$$

ILZ005-006-012>014-019>023-020000-
NORTHEAST ILLINOIS

CITY           SKY/WX    TMP DP  RH WIND       PRES   REMARKS
CHICAGO-OHARE  MOSUNNY   58  38  47 NE12      30.19F
CHICAGO-MIDWAY MOSUNNY   61  40  45 NE14      30.19F
AURORA         SUNNY     63  43  48 NE10G22   30.18F
LANSING*       CLOUDY    57  39  51 NE13      30.19F
JOLIET*        SUNNY     64  48  57 NE9       30.18S
WAUKEGAN       SUNNY     55  36  48 NE13      30.21F
DUPAGE AIRPORT SUNNY     60  40  47 NE10      30.18F
KANKAKEE*      MOSUNNY   63  51  67 N8        30.17S
WHEELING       SUNNY     56  34  43 NE12      30.22F
MORRIS*        SUNNY     65  46  51 E8        30.16S
ROMEOVILLE*    SUNNY     61  45  55 NE9       30.18S
NORTHERLY ISL    N/A     52  40  63 N13         N/A
$$

LMZ740>746-020000-
SOUTHERN LAKE MICHIGAN

STATION/POSITION SKY/WX   TEMP    WIND        PRES    VSBY  WAVE
                          AIR SEA DIR/SP/G                  HT/PER
                          (F)     (DEG/KT/KT) (MB)    (MI)  (FT/S)
SOUTHERN BUOY              42 38  350/ 12/ 14 1023.3F         1/ 3
HARRISON CRIB              49     360/ 14/ 16   N/A
BURNHAM HARBOR             52     360/ 10/ 14   N/A
CALUMET HARBOR             51     340/ 10/ 15   N/A
BURNS HARBOR               49      20/ 14/ 15 1023.4F
MICHIGAN CITY              48     350/ 10/ 12   N/A
MICHIGAN CITY 6N           48 54   30/ 10/ 14   N/A           2/ 3
ST. JOSEPH                 52 55   30/ 16/ 17   N/A           4/ 4
$$

ILZ025>027-034>036-040-047-049-050-058-095>099-020000-
WEST-CENTRAL ILLINOIS

CITY           SKY/WX    TMP DP  RH WIND       PRES   REMARKS
QUINCY         CLOUDY    65  53  65 E8        30.14F
GALESBURG*     CLOUDY    66  54  63 SE3       30.15S
MACOMB*        CLOUDY    65  54  67 S6        30.18S
JACKSONVILLE*  CLOUDY    67  56  68 NE9       30.15S
PITTSFIELD*    CLOUDY    64  55  72 NE5       30.16S
$$

ILZ028>032-037-038-041>044-048-051>054-059>061-020000-
CENTRAL ILLINOIS

CITY           SKY/WX    TMP DP  RH WIND       PRES   REMARKS
PONTIAC        PTSUNNY   67  53  62 E7        30.17S
BLOOMINGTON    CLOUDY    62  54  75 NE8       30.17F
DECATUR        CLOUDY    66  56  70 NE12      30.13F
PEORIA         MOSUNNY   68  54  60 E6        30.15F
LACON*         MOSUNNY   68  50  53 CALM      30.14F
LINCOLN*       CLOUDY    64  55  72 NE7       30.14S
SPRINGFIELD    CLOUDY    67  55  65 NE10      30.14F
TAYLORVILLE    CLOUDY    64  55  72 NE8       30.13S
$$

ILZ033-039-045-046-055>057-062-063-020000-
EAST-CENTRAL ILLINOIS

CITY           SKY/WX    TMP DP  RH WIND       PRES   REMARKS
CHAMPAIGN      MOSUNNY   67  54  63 NE12      30.14S
DANVILLE*      PTSUNNY   64  54  69 E8        30.12F
RANTOUL*       MOSUNNY   67  55  65 NE10      30.14F
MATTOON        CLOUDY    64  54  69 SE9       30.12S
PARIS*         MOSUNNY   66  55  68 E9        30.14S
$$

ILZ079-100>102-020000-
SOUTHWEST ILLINOIS

CITY           SKY/WX    TMP DP  RH WIND       PRES   REMARKS
ALTON          CLOUDY    64  61  88 N6        30.13F
BELLEVILLE     PTSUNNY   64  58  82 N6        30.11S
CAHOKIA*       CLOUDY    65  55  70 N6        30.13S
SPARTA*        CLOUDY    62  56  80 NE3       30.12S
$$

ILZ064>066-069>071-074>076-080>082-084>086-088>090-092>094-020000-
SOUTH-CENTRAL ILLINOIS

CITY           SKY/WX    TMP DP  RH WIND       PRES   REMARKS
CARBONDALE     CLOUDY    62  55  77 N6        30.11S
CAIRO*         CLOUDY    65  59  81 N8        30.09S
EFFINGHAM*     CLOUDY    65  51  62 NE3       30.13F
MARION         CLOUDY    63  57  82 MISG      30.11S FOG
MT. VERNON     CLOUDY    61  52  72 N6        30.13S
CENTRALIA*     CLOUDY    63  53  71 E6        30.12S
SALEM*         CLOUDY    64  55  74 NE3       30.13S
$$

ILZ067-068-072-073-078-083-087-091-020000-
SOUTHEAST ILLINOIS

CITY           SKY/WX    TMP DP  RH WIND       PRES   REMARKS
LAWRENCEVILLE  CLOUDY    61  53  75 NE8       30.12S
FLORA*         MOSUNNY   62  54  75 NE6       30.13S
FAIRFIELD*     CLOUDY    60  54  79 N6        30.11S
HARRISBURG*    PTSUNNY   62  56  80 N7        30.12S
ROBINSON*      CLOUDY    62  53  74 E9        30.13S
CARMI*         CLOUDY    63  52  67 N7        30.10S
$$

ABBREVIATIONS USED IN REMARKS
   TC - TEMPERATURE IN CELSIUS
  WCI - WIND CHILL INDEX
   HX - HEAT INDEX
  VSB - VISIBILITY
$$




USA.gov is the U.S. government's official web portal to all federal, state and local government web resources and services.